Location: Kershaw
(34.5481°N, 80.5823°W)
Time: 00:20:33
(UTC+00:00)

Altair - Pass Details

Date: 08 October 2022
Orbit: 1501 x 1682 km, 47.2° (Epoch: 05 December)

Event Time Altitude Azimuth Distance (km) Brightness Sun altitude
Exits shadow 10:26:53 14° 277° (W) 3,458 8.7 -12.2°
Maximum altitude 10:34:52 45° 345° (NNW) 2,110 8.1 -10.6°
Drops below altitude 10° 10:44:23 10° 56° (NE) 3,920 10.5 -8.6°
Sets 10:47:49 0° 63° (ENE) 4,922 11.3 -7.9°
